Location: Stull Observatory
(42.2506°N, 77.7903°W)
Time: 15:07:38
(UTC-04:00)

ISS - All Passes

Search period start: 01 September 2014 00:00
Search period end: 11 September 2014 00:00
Orbit: 414 x 419 km, 51.6° (Epoch: 01 September)

Date Brightness Start Highest point End Pass type
(mag) Time Alt. Az. Time Alt. Az. Time Alt. Az.
01 Sep - 10:36:15 10° SW 10:39:33 66° SE 10:42:51 10° ENE daylight
01 Sep - 12:13:42 10° WNW 12:16:31 25° NNW 12:19:21 10° NE daylight
01 Sep - 13:51:55 10° NW 13:54:06 16° N 13:56:17 10° NE daylight
01 Sep - 15:28:41 10° NW 15:31:38 28° NNE 15:34:34 10° E daylight
01 Sep - 17:05:15 10° WNW 17:08:31 51° SW 17:11:45 10° SE daylight
02 Sep - 09:47:59 10° SSW 09:51:05 37° SE 09:54:11 10° ENE daylight
02 Sep - 11:24:47 10° W 11:27:50 33° NNW 11:30:55 10° NE daylight
02 Sep - 13:03:05 10° NW 13:05:19 16° N 13:07:32 10° NE daylight
02 Sep - 14:40:14 10° NW 14:42:55 22° NNE 14:45:36 10° ENE daylight
02 Sep - 16:16:40 10° NW 16:20:00 89° SW 16:23:20 10° SE daylight
02 Sep - 17:55:20 10° WSW 17:56:15 11° SW 17:57:11 10° SW daylight
03 Sep - 09:00:02 10° S 09:02:40 22° SE 09:05:18 10° E daylight
03 Sep - 10:35:57 10° WSW 10:39:11 48° NNW 10:42:26 10° NE daylight
03 Sep - 12:14:08 10° NW 12:16:31 18° N 12:18:53 10° NE daylight
03 Sep - 13:51:43 10° NW 13:54:09 19° N 13:56:36 10° ENE daylight
03 Sep - 15:28:08 10° NW 15:31:26 55° NNE 15:34:42 10° ESE daylight
03 Sep - 17:05:28 10° W 17:07:54 19° SW 17:10:19 10° S daylight
04 Sep - 08:12:43 10° SSE 08:14:16 13° SE 08:15:50 10° ESE daylight
04 Sep - 09:47:15 10° WSW 09:50:34 79° NNW 09:53:55 10° NE daylight
04 Sep - 11:25:06 10° WNW 11:27:43 21° NNW 11:30:20 10° NE daylight
04 Sep - 13:03:05 10° NW 13:05:20 17° N 13:07:36 10° NE daylight
04 Sep - 14:39:38 10° NW 14:42:46 36° NNE 14:45:53 10° E daylight
04 Sep - 16:16:27 10° WNW 16:19:28 32° SW 16:22:28 10° SSE daylight
05 Sep - 08:58:43 10° SW 09:02:00 60° SE 09:05:17 10° ENE daylight
05 Sep - 10:36:04 10° W 10:38:56 26° NNW 10:41:48 10° NE daylight
05 Sep - 12:14:18 10° NW 12:16:29 16° N 12:18:40 10° NE daylight
05 Sep - 13:51:08 10° NW 13:54:02 27° NNE 13:56:55 10° E daylight
05 Sep - 15:27:40 10° WNW 15:30:56 56° SW 15:34:12 10° SE daylight
06 Sep - 08:10:25 10° SSW 08:13:27 34° SE 08:16:30 10° ENE daylight
06 Sep - 09:47:05 10° W 09:50:10 35° NNW 09:53:16 10° NE daylight
06 Sep - 11:25:22 10° NW 11:27:36 17° N 11:29:51 10° NE daylight
06 Sep - 13:02:35 10° NW 13:05:13 21° NNE 13:07:52 10° ENE daylight
06 Sep - 14:39:00 10° NW 14:42:20 84° NE 14:45:40 10° ESE daylight
06 Sep - 16:17:16 10° WSW 16:18:37 12° SW 16:19:57 10° SSW daylight
07 Sep - 07:22:26 10° S 07:24:57 20° SE 07:27:28 10° E daylight
07 Sep - 08:58:10 10° WSW 09:01:26 52° NNW 09:04:42 10° NE daylight
07 Sep - 10:36:19 10° WNW 10:38:43 18° N 10:41:08 10° NE daylight
07 Sep - 12:13:57 10° NW 12:16:22 18° N 12:18:46 10° ENE daylight
07 Sep - 13:50:23 10° NW 13:53:39 51° NNE 13:56:54 10° ESE daylight
07 Sep - 15:27:36 10° W 15:30:09 21° SW 15:32:42 10° S daylight
08 Sep - 06:35:15 10° SSE 06:36:29 12° SE 06:37:42 10° ESE daylight
08 Sep - 08:09:25 10° WSW 08:12:44 86° NNW 08:16:05 10° NE daylight
08 Sep - 09:47:11 10° WNW 09:49:50 21° NNW 09:52:30 10° NE daylight
08 Sep - 11:25:13 10° NW 11:27:27 17° N 11:29:41 10° NE daylight
08 Sep - 13:01:48 10° NW 13:04:53 34° NNE 13:07:58 10° E daylight
08 Sep - 14:38:32 10° WNW 14:41:37 35° SW 14:44:41 10° SSE daylight
09 Sep - 07:20:49 10° SW 07:24:04 55° SE 07:27:20 10° ENE daylight
09 Sep - 08:58:04 10° W 09:00:58 27° NNW 09:03:53 10° NE daylight
09 Sep - 10:36:19 10° NW 10:38:30 16° N 10:40:41 10° NE daylight
09 Sep - 12:13:12 10° NW 12:16:03 26° NNE 12:18:54 10° ENE daylight
09 Sep - 13:49:42 10° WNW 13:53:00 62° SW 13:56:17 10° SE daylight
10 Sep - 06:32:28 10° SSW 06:35:27 31° SE 06:38:26 10° ENE daylight
10 Sep - 08:09:00 10° W 08:12:07 37° NNW 08:15:16 10° NE daylight
10 Sep - 09:47:16 10° NW 09:49:32 17° N 09:51:48 10° NE daylight
10 Sep - 11:24:33 10° NW 11:27:09 21° NNE 11:29:45 10° ENE daylight
10 Sep - 13:00:57 10° NW 13:04:17 77° NNE 13:07:37 10° ESE daylight
10 Sep - 14:38:56 10° W 14:40:36 13° SW 14:42:15 10° SSW daylight
